GW1125 Weather Reports


time (UTC)temp
C
wind
direction
speed
KPH
gust
KPH
rain 1hr
cm
rain 24hr
cm
rain mn
cm
humidity
%
barometer
mb
20260831035822 16 108 0.0 0.0 0.00 0.00 0.00 68 1016.1
20260831034804 16 102 0.0 0.0 0.00 0.00 0.00 69 1016.0
20260831033732 16 83 0.0 1.6 0.00 0.00 0.00 67 1016.0
20260831032722 16 103 0.0 0.0 0.00 0.00 0.00 67 1016.0
20260831031712 16 86 0.0 0.0 0.00 0.00 0.00 68 1015.9
20260831030703 16 105 0.0 0.0 0.00 0.00 0.00 67 1015.9
20260831025656 17 104 0.0 0.0 0.00 0.00 0.00 65 1015.8
20260831024647 17 102 0.0 0.0 0.00 0.00 0.00 63 1016.0
20260831023631 18 107 0.0 0.0 0.00 0.00 0.00 61 1016.0
20260831022603 18 100 0.0 0.0 0.00 0.00 0.00 59 1016.1
20260831021529 18 82 0.0 0.0 0.00 0.00 0.00 58 1016.2
20260831020451 19 115 0.0 1.6 0.00 0.00 0.00 57 1016.3
20260831015427 19 105 0.0 0.0 0.00 0.00 0.00 56 1016.3
20260831014410 20 105 0.0 0.0 0.00 0.00 0.00 54 1016.3
20260831013405 20 74 1.6 3.2 0.00 0.00 0.00 53 1016.4
20260831012359 20 84 3.2 4.8 0.00 0.00 0.00 53 1016.4
20260831011339 21 102 1.6 3.2 0.00 0.00 0.00 53 1016.4
20260831010325 20 85 0.0 0.0 0.00 0.00 0.00 54 1016.6
20260831005242 21 149 1.6 3.2 0.00 0.00 0.00 54 1016.5
20260831004216 21 110 1.6 1.6 0.00 0.00 0.00 54 1016.5
20260831003211 21 101 0.0 0.0 0.00 0.00 0.00 52 1016.6
20260831002157 21 104 1.6 3.2 0.00 0.00 0.00 52 1016.7
20260831001148 22 130 1.6 1.6 0.00 0.00 0.00 49 1016.9
20260831000122 21 93 0.0 0.0 0.00 0.00 0.00 52 1017.0
20260830235119 21 11 6.4 9.7 0.00 0.00 0.00 52 1017.0
20260830234044 21 104 0.0 0.0 0.00 0.00 0.00 51 1017.1
20260830233034 22 98 1.6 3.2 0.00 0.00 0.00 50 1017.0
20260830232029 22 119 0.0 0.0 0.00 0.00 0.00 49 1017.3
20260830231009 22 102 0.0 1.6 0.00 0.00 0.00 50 1017.0
20260830225942 22 114 0.0 1.6 0.00 0.00 0.00 52 1017.3
20260830224939 22 119 0.0 1.6 0.00 0.00 0.00 50 1017.4
20260830223929 22 92 3.2 4.8 0.00 0.00 0.00 49 1017.5
20260830222905 23 130 0.0 1.6 0.00 0.00 0.00 50 1017.7
20260830221857 21 118 0.0 0.0 0.00 0.00 0.00 52 1017.7
20260830220832 22 76 3.2 3.2 0.00 0.00 0.00 48 1017.6
20260830215805 22 123 0.0 0.0 0.00 0.00 0.00 50 1017.7
20260830214805 21 112 0.0 0.0 0.00 0.00 0.00 51 1017.8
20260830213734 22 99 3.2 4.8 0.00 0.00 0.00 52 1018.2
20260830212709 20 97 1.6 1.6 0.00 0.00 0.00 58 1018.1
20260830211645 18 96 1.6 3.2 0.00 0.00 0.00 62 1018.4
20260830210627 18 52 1.6 1.6 0.00 0.00 0.00 62 1018.5
20260830205609 18 103 0.0 0.0 0.00 0.00 0.00 65 1018.6
20260830204609 18 103 0.0 0.0 0.00 0.00 0.00 65 1018.5
20260830203542 20 100 0.0 0.0 0.00 0.00 0.00 61 1018.8
20260830202540 19 80 3.2 3.2 0.00 0.00 0.00 61 1018.7
20260830201538 19 82 1.6 1.6 0.00 0.00 0.00 63 1018.6
20260830200528 18 106 0.0 0.0 0.00 0.00 0.00 63 1018.8
20260830195514 20 73 3.2 4.8 0.00 0.00 0.00 60 1018.7
20260830194513 19 109 0.0 0.0 0.00 0.00 0.00 63 1018.8
20260830193505 19 96 0.0 0.0 0.00 0.00 0.00 63 1018.9
20260830192444 19 261 3.2 4.8 0.00 0.00 0.00 62 1018.9
20260830191421 19 100 1.6 1.6 0.00 0.00 0.00 63 1019.1
20260830190418 19 116 0.0 0.0 0.00 0.00 0.00 64 1018.9
20260830185356 18 107 0.0 0.0 0.00 0.00 0.00 66 1019.0
20260830184337 17 114 0.0 0.0 0.00 0.00 0.00 68 1019.0
20260830183314 17 101 0.0 1.6 0.00 0.00 0.00 70 1019.1
20260830182250 18 108 0.0 0.0 0.00 0.00 0.00 68 1019.2
20260830181234 17 103 0.0 0.0 0.00 0.00 0.00 71 1019.2
20260830180226 16 175 1.6 1.6 0.00 0.00 0.00 71 1019.2
20260830175221 17 106 0.0 0.0 0.00 0.00 0.00 71 1019.2
20260830174159 16 103 0.0 0.0 0.00 0.00 0.00 73 1019.3
20260830173156 16 106 0.0 0.0 0.00 0.00 0.00 74 1019.2
20260830172144 16 103 0.0 0.0 0.00 0.00 0.00 74 1019.1
20260830171121 16 192 3.2 4.8 0.00 0.00 0.00 75 1019.2
20260830170050 15 172 3.2 4.8 0.00 0.00 0.00 75 1019.1
20260830165046 15 114 0.0 0.0 0.00 0.00 0.00 77 1019.0
20260830164040 15 100 0.0 0.0 0.00 0.00 0.00 78 1019.1
20260830163024 15 103 0.0 1.6 0.00 0.00 0.00 77 1019.3
20260830162002 15 108 0.0 0.0 0.00 0.00 0.00 79 1019.2
20260830160954 15 104 0.0 0.0 0.00 0.00 0.00 79 1019.2
20260830155934 14 106 0.0 0.0 0.00 0.00 0.00 79 1019.2
20260830154922 14 106 0.0 0.0 0.00 0.00 0.00 78 1019.4
20260830153857 14 106 0.0 0.0 0.00 0.00 0.00 81 1019.2
20260830152847 13 105 0.0 0.0 0.00 0.03 0.00 80 1019.3
20260830151838 13 106 0.0 0.0 0.00 0.03 0.00 81 1019.0
20260830150834 13 106 0.0 0.0 0.00 0.05 0.00 82 1019.2
20260830145823 13 105 0.0 0.0 0.00 0.08 0.00 83 1019.2
20260830144820 13 105 0.0 0.0 0.00 0.10 0.00 84 1019.0
20260830143808 12 105 0.0 0.0 0.00 0.41 0.00 85 1019.1
20260830142748 12 105 0.0 0.0 0.00 0.86 0.00 86 1019.0
20260830141737 12 105 0.0 0.0 0.00 0.89 0.00 87 1018.9
20260830140721 12 105 0.0 0.0 0.00 0.89 0.00 87 1018.6
20260830135712 12 105 0.0 0.0 0.00 0.89 0.00 88 1018.8
20260830134646 12 105 0.0 0.0 0.00 0.94 0.00 88 1018.8
20260830133618 12 105 0.0 0.0 0.00 0.97 0.00 89 1018.7
20260830132549 12 107 0.0 0.0 0.00 0.97 0.00 88 1018.6
20260830131534 12 107 0.0 0.0 0.00 0.99 0.00 88 1018.5
20260830130516 12 107 0.0 0.0 0.00 0.99 0.00 88 1018.4
20260830125513 12 107 0.0 0.0 0.00 0.99 0.00 88 1018.5
20260830124439 12 107 0.0 0.0 0.00 0.99 0.00 88 1018.6
20260830123429 12 107 0.0 0.0 0.00 0.99 0.00 88 1018.7
20260830122426 12 107 0.0 0.0 0.00 0.99 0.00 88 1018.7
20260830121410 12 107 0.0 0.0 0.00 0.99 0.00 88 1018.6
20260830120407 12 107 0.0 0.0 0.00 0.99 0.00 89 1018.8
20260830115346 12 107 0.0 0.0 0.00 0.99 0.00 89 1018.7
20260830114322 12 107 0.0 0.0 0.00 0.99 0.00 89 1018.6
20260830113314 12 108 0.0 0.0 0.00 0.99 0.00 89 1018.7
20260830112300 12 108 0.0 0.0 0.00 0.99 0.00 89 1018.4
20260830111256 12 108 0.0 0.0 0.00 0.99 0.00 89 1018.4
20260830110229 12 108 0.0 0.0 0.00 0.99 0.00 89 1018.6
20260830105210 12 108 0.0 0.0 0.00 0.99 0.00 90 1018.6
20260830104154 12 108 0.0 0.0 0.00 0.99 0.00 90 1018.5
20260830103130 12 108 0.0 0.0 0.00 0.99 0.00 91 1018.6
20260830102123 12 108 0.0 0.0 0.00 0.99 0.00 90 1018.6
20260830101120 12 108 0.0 0.0 0.00 0.99 0.00 90 1018.5
20260830100114 12 110 0.0 0.0 0.00 0.99 0.00 90 1018.2
20260830095102 12 110 0.0 0.0 0.00 0.99 0.00 89 1018.2
20260830094053 12 110 0.0 0.0 0.00 0.99 0.00 88 1018.3
20260830093034 12 110 0.0 0.0 0.00 0.99 0.00 88 1018.2
20260830092008 12 111 0.0 0.0 0.00 0.99 0.00 87 1018.5
20260830090952 12 115 0.0 0.0 0.00 0.99 0.00 88 1018.4
20260830085936 12 116 0.0 0.0 0.00 0.99 0.00 88 1018.6
20260830084921 12 114 0.0 0.0 0.00 0.99 0.00 88 1018.4
20260830083901 12 104 0.0 0.0 0.00 0.99 0.00 87 1018.5
20260830082832 12 114 0.0 0.0 0.00 0.99 0.00 87 1018.4
20260830081810 12 105 0.0 0.0 0.00 0.99 0.00 88 1018.3
20260830080756 12 104 0.0 0.0 0.00 0.99 0.00 88 1018.4
20260830075724 12 108 0.0 0.0 0.00 0.99 0.99 88 1018.5
20260830074654 12 108 0.0 0.0 0.00 0.99 0.99 88 1018.4
20260830073650 12 103 0.0 0.0 0.00 0.99 0.99 87 1018.2
20260830072635 12 105 0.0 0.0 0.00 0.99 0.99 87 1018.2
20260830071624 12 107 0.0 0.0 0.00 0.99 0.99 86 1018.4
20260830070609 12 112 0.0 0.0 0.00 0.99 0.99 85 1018.3
20260830065605 12 109 0.0 0.0 0.00 0.99 0.99 84 1017.9
20260830064523 13 110 0.0 0.0 0.00 0.99 0.99 83 1018.1
20260830063512 12 107 0.0 0.0 0.00 0.99 0.99 83 1018.0
20260830062451 13 108 0.0 0.0 0.00 0.99 0.99 82 1017.9
20260830061447 13 108 0.0 0.0 0.00 0.99 0.99 81 1018.0
20260830060428 13 107 0.0 0.0 0.00 0.99 0.99 81 1018.0
20260830055426 13 103 0.0 0.0 0.00 0.99 0.99 81 1018.1
20260830054410 13 108 0.0 0.0 0.00 0.99 0.99 80 1017.9
20260830053405 14 108 0.0 0.0 0.00 0.99 0.99 78 1017.9
20260830052405 14 105 0.0 0.0 0.00 0.99 0.99 78 1017.9
20260830051357 14 110 0.0 0.0 0.00 0.99 0.99 76 1018.0
20260830050353 15 108 0.0 0.0 0.00 0.99 0.99 75 1017.9
20260830045342 14 110 0.0 0.0 0.00 0.99 0.99 75 1017.9
20260830044337 14 105 0.0 0.0 0.00 0.99 0.99 75 1017.8
20260830043259 15 107 0.0 0.0 0.00 0.99 0.99 73 1017.7
20260830042245 15 106 0.0 0.0 0.00 0.99 0.99 72 1017.8
20260830041221 15 102 0.0 0.0 0.00 0.99 0.99 72 1017.5